Wind_Speed
17 15 15 14 13 10 8 7 5 10 13 12 6 9 9 5 20 11 12 16 18 21 15 10 6 10 3 3 5 2 4 2 2 3 4 4 4 5 7 9 6 6 7 6 9
17 17 16 15 12 11 10 9 5 10 9 10 2 8 11 4 5 17 18 21 18 19 10 8 6 9 3 3 4 5 4 2 1 1 4 3 5 7 4 6 8 9 11 9 14
18 17 14 15 14 13 12 11 6 6 7 9 2 10 12 0 4 6 23 20 17 18 5 5 2 2 4 4 5 4 3 4 4 3 5 4 4 3 8 5 2 8 6 9 14
19 17 13 11 12 13 13 11 8 4 5 6 6 12 8 1 1 13 20 18 14 13 6 7 5 4 4 4 3 6 7 3 2 2 4 4 5 5 4 6 11 9 11 11 13
19 17 13 9 8 10 11 10 7 6 3 2 9 9 3 6 1 19 17 13 10 10 15 3 5 2 4 4 3 5 3 6 7 11 8 9 6 7 10 12 16 15 13 11 12
19 17 13 10 9 8 9 8 8 8 4 3 10 1 2 4 5 21 14 10 14 12 12 8 2 1 5 4 4 4 7 7 4 6 5 9 5 4 5 12 12 11 9 10 12
17 17 14 9 9 8 7 5 2 6 4 5 6 4 8 2 6 21 13 8 11 11 4 7 2 4 2 5 6 7 6 5 2 2 4 13 4 2 14 12 12 10 9 9 11
19 18 16 9 9 9 6 6 5 6 5 6 4 3 3 4 6 21 15 5 8 8 5 8 10 7 5 2 5 3 4 2 1 2 4 1 2 4 11 13 10 8 6 5 7
20 20 19 12 8 12 7 4 12 4 4 2 3 4 1 5 6 19 14 8 8 6 12 9 8 5 6 4 4 6 2 3 1 4 0 3 2 5 8 12 9 6 4 4 3
20 19 19 15 9 16 10 12 13 4 4 3 4 3 6 5 8 16 10 12 5 4 6 9 6 4 5 5 3 4 3 1 2 5 4 2 3 7 6 9 8 6 4 3 4
22 20 19 16 11 16 11 6 4 3 12 3 3 0 2 11 3 16 16 5 5 8 5 5 6 4 1 3 2 2 2 1 2 3 3 3 5 8 6 7 7 5 4 4 4
24 21 19 18 9 12 7 5 3 1 2 1 1 1 2 5 5 16 16 6 7 4 5 5 4 1 4 3 3 3 1 3 3 2 3 2 3 7 8 3 4 5 3 3 5
25 22 19 15 7 7 9 5 5 2 1 1 2 2 3 5 3 9 8 3 5 5 6 5 3 1 2 4 3 2 1 1 3 7 2 5 3 5 2 3 5 3 1 1 4
24 20 18 15 3 6 4 3 5 5 3 2 0 2 4 1 4 3 6 3 6 3 3 5 2 2 3 3 1 1 4 1 3 4 3 4 6 5 6 5 6 5 4 6 6
24 19 17 11 3 3 4 2 5 2 4 3 2 1 3 4 3 6 8 5 4 2 1 1 1 2 2 1 1 1 2 3 1 3 3 1 1 3 6 7 7 7 8 8 7
25 19 13 7 3 3 1 2 2 5 5 3 3 4 4 4 4 5 6 7 4 3 5 3 2 2 2 3 2 4 3 3 2 2 1 3 4 4 5 6 3 5 7 8 7
26 18 9 6 4 3 2 2 4 3 2 2 1 2 2 4 4 5 5 6 3 2 1 1 0 1 2 2 2 4 2 3 5 3 4 2 1 7 5 6 5 7 8 8 6
25 15 7 6 4 1 2 4 1 1 2 1 0 1 2 1 2 1 3 1 1 2 2 2 4 4 2 1 3 2 2 4 6 3 5 5 7 5 6 4 6 6 6 8 7
21 11 2 6 3 1 4 3 5 4 1 1 1 1 2 2 2 1 2 4 5 4 5 4 3 1 2 2 2 3 1 3 5 3 2 3 6 4 3 5 4 8 7 7 7
15 5 1 3 3 2 4 5 3 1 1 0 5 2 4 4 2 3 5 4 5 4 3 4 3 2 3 2 2 2 6 3 2 2 6 4 5 5 4 7 6 6 8 7 6
5 3 2 2 2 4 3 6 3 1 2 3 3 3 5 4 4 3 4 2 4 4 3 3 2 1 2 6 7 4 2 2 3 4 5 4 6 6 9 7 8 8 6 6 7
1 2 2 3 1 1 2 4 1 3 2 3 2 3 5 4 4 4 4 2 5 6 5 2 3 4 6 1 1 3 6 6 4 5 3 3 7 3 6 6 6 6 5 5 6
1 2 1 2 2 3 2 4 4 6 5 4 3 5 1 4 3 5 3 1 6 6 5 6 1 3 2 3 4 3 5 4 3 3 7 4 6 2 3 5 6 5 6 6 7
2 3 1 1 2 5 4 5 4 1 3 4 4 4 3 4 5 3 5 3 5 4 6 7 4 6 6 2 3 5 6 8 6 4 4 14 11 5 7 7 5 6 6 7 8
1 4 1 3 5 5 5 2 4 4 3 4 3 9 7 6 4 6 4 3 2 6 4 4 5 5 7 8 7 9 11 12 15 18 8 12 10 10 5 5 5 5 5 8 5
3 2 1 2 1 5 8 7 9 5 7 6 8 6 10 7 8 7 6 5 6 4 6 4 3 1 4 9 9 13 16 16 17 18 14 18 19 2 2 2 3 6 6 7 7
2 3 2 5 3 5 6 8 12 10 10 7 9 4 9 15 4 3 4 3 7 10 8 7 3 1 4 3 4 10 10 15 4 5 8 8 7 3 2 5 4 6 6 5 9
Wind_Direction
15 15 11 11 13 21 32 42 66 151 147 154 84 31 20 16 47 73 40 341 332 333 345 342 14 19 44 55 43 97 64 119 164 144 141 25 92 39 57 76 51 42 70 90 42
15 14 16 13 19 29 36 33 63 154 160 167 58 7 355 338 24 50 356 347 347 350 351 8 358 359 41 29 24 69 89 126 359 118 128 83 90 121 108 99 94 88 82 76 54
14 15 22 27 40 46 42 34 43 164 175 182 320 348 347 131 68 336 349 357 355 358 338 1 341 24 58 35 10 24 91 143 18 105 111 98 66 57 132 60 80 124 105 68 57
13 13 21 34 46 44 33 28 41 112 180 208 294 334 349 66 275 344 350 357 0 4 57 17 31 45 64 64 38 90 35 71 21 28 79 82 101 65 44 100 113 108 96 78 60
12 11 16 17 12 13 14 21 54 76 113 236 308 305 326 49 11 351 350 2 13 28 43 38 55 65 93 93 89 88 122 54 83 76 59 77 58 109 103 111 110 106 87 72 59
12 10 14 16 11 10 10 27 87 58 55 21 358 43 34 80 346 351 348 8 26 31 39 37 98 105 91 63 63 95 97 128 70 86 113 109 138 94 139 125 112 102 88 77 67
5 7 8 16 15 11 15 27 135 15 7 353 5 16 59 163 350 353 8 23 19 29 29 28 359 85 107 92 154 145 99 109 50 122 117 128 84 100 141 129 110 93 81 67 53
0 360 357 348 2 1 4 20 318 312 321 315 337 10 103 3 340 0 16 32 43 47 28 31 81 86 46 310 49 65 80 133 54 29 170 177 172 159 135 126 119 115 104 79 50
4 358 353 333 331 345 329 6 6 296 357 327 316 66 58 340 17 355 2 352 350 48 49 51 60 70 18 78 43 14 194 197 163 51 262 196 148 142 141 129 127 123 108 93 50
2 359 357 351 318 336 309 273 328 338 312 331 44 46 24 321 324 348 358 12 18 354 20 36 47 69 35 43 238 194 187 284 254 347 5 258 129 132 151 135 138 139 122 74 26
0 355 354 352 329 339 343 319 0 348 40 85 296 132 327 329 360 6 356 355 25 56 36 7 64 55 53 360 357 63 59 258 124 2 329 255 168 176 147 126 145 152 114 53 20
1 353 352 348 339 349 349 68 44 285 1 40 73 51 14 349 4 351 7 56 42 58 337 30 81 180 98 26 76 50 25 319 274 17 346 262 252 158 159 165 165 156 130 38 344
2 353 349 352 358 5 43 60 35 358 39 21 52 39 332 34 70 338 17 44 69 57 16 104 142 193 110 46 52 89 118 87 243 330 279 311 197 170 134 123 151 161 112 344 302
4 0 354 349 31 7 67 74 4 358 19 225 277 348 359 74 56 352 20 72 31 134 88 83 334 101 85 82 49 255 134 86 292 12 262 8 289 220 183 189 203 209 260 270 281
1 1 356 10 350 35 325 283 350 47 343 23 19 354 40 56 347 6 27 34 95 117 152 137 79 103 83 105 108 342 330 279 226 182 17 197 136 292 134 224 225 236 250 260 268
357 355 1 358 9 355 342 210 360 45 263 19 18 353 353 25 12 339 16 38 132 91 49 90 65 51 80 44 298 331 27 73 61 114 345 210 159 247 189 210 237 241 246 253 277
352 347 354 10 335 352 93 59 34 141 108 328 285 63 93 342 20 39 22 10 346 340 214 126 113 91 117 123 327 50 39 320 335 356 250 118 206 254 231 222 210 197 232 251 279
346 345 339 3 2 98 312 49 172 254 197 186 98 54 261 80 148 72 120 147 89 91 103 215 298 170 148 102 158 68 134 153 249 267 284 326 237 261 216 250 244 246 256 276 281
344 336 46 3 29 123 62 47 233 204 149 221 220 235 226 218 207 133 176 196 185 176 171 167 238 138 99 144 168 144 126 144 109 177 16 243 289 313 280 266 248 247 254 261 277
333 337 4 29 117 103 81 240 248 207 137 197 232 193 251 211 211 194 188 170 174 179 194 177 301 211 145 115 43 171 152 89 37 256 266 277 277 239 257 248 251 258 246 272 288
335 359 172 108 142 64 213 227 258 192 154 191 264 264 240 232 209 232 213 168 172 149 129 141 142 148 90 201 175 151 184 107 115 160 198 294 258 214 194 206 223 238 238 261 284
34 318 207 155 27 63 217 208 124 209 193 234 245 240 213 197 231 251 238 266 158 150 159 182 140 225 216 53 329 189 190 162 152 234 215 149 274 208 209 217 209 235 264 284 277
192 243 209 179 226 224 264 273 228 171 204 182 239 214 117 217 243 197 214 47 154 154 170 182 178 335 285 1 352 211 195 177 107 101 198 151 261 255 260 256 236 242 279 289 291
141 275 265 82 189 163 206 221 225 172 250 204 196 145 151 223 214 245 202 188 187 165 178 160 182 203 213 225 141 212 207 200 173 167 196 226 261 239 253 229 235 279 271 280 285
224 225 82 215 235 176 160 173 190 217 242 205 247 216 178 211 199 224 148 146 187 211 159 161 224 203 260 261 231 236 239 205 212 226 223 268 246 273 261 226 241 261 287 305 309
191 203 343 287 151 158 180 204 203 186 158 225 227 197 200 213 199 187 146 187 194 161 159 191 265 100 251 259 263 259 243 233 233 239 250 265 277 172 143 231 252 281 288 303 310
215 158 121 153 195 170 202 200 209 144 215 205 205 190 213 226 174 142 152 148 163 164 176 165 196 102 264 353 337 283 250 215 187 194 210 230 241 163 248 281 289 283 289 305 312
Height
830 828 824 822 819 817 815 814 813 814 815 815 813 812 811 810 808 805 809 816 811 805 800 796 795 794 794 796 798 802 824 832 830 827 837 845 848 861 869 871 876 881 885 890 890
832 829 826 823 820 819 818 816 815 815 815 816 815 814 811 810 809 809 816 811 807 804 800 798 798 797 800 801 805 814 830 830 833 832 838 849 849 859 867 872 883 885 888 888 886
834 830 827 825 823 821 819 818 817 816 817 817 816 815 812 810 811 816 812 809 807 804 801 800 799 799 804 805 814 822 830 832 835 835 838 848 858 861 867 878 879 887 889 890 888
835 832 829 828 826 824 822 820 818 817 817 818 817 816 813 812 818 818 813 810 807 804 802 801 801 805 813 815 818 829 836 833 838 839 840 850 859 870 871 880 883 886 889 888 886
836 834 831 830 828 826 824 822 820 819 819 818 817 815 814 818 824 819 814 811 808 805 804 805 807 810 816 818 820 831 838 842 847 849 854 856 866 872 882 884 886 888 889 889 889
838 835 832 831 829 827 826 824 822 821 820 819 817 815 815 822 822 820 814 812 809 808 809 808 811 811 817 822 825 833 839 845 846 850 856 864 872 868 886 885 887 890 893 893 892
839 836 834 831 830 828 827 825 823 822 821 820 818 816 819 827 823 821 815 814 813 812 812 812 811 812 818 825 831 835 843 846 848 849 857 860 871 875 881 886 888 890 892 893 892
841 838 836 834 831 829 827 825 824 822 821 820 818 817 825 825 823 821 817 815 815 814 814 814 814 819 825 828 832 834 842 845 850 850 855 855 865 878 883 885 891 892 892 893 893
842 840 837 835 833 831 829 826 824 823 822 820 819 819 826 825 824 823 821 819 816 816 816 816 817 835 837 839 846 853 844 846 850 859 856 859 869 880 885 885 891 894 895 894 893
843 840 836 834 833 831 828 827 825 823 822 821 821 825 828 833 828 826 823 821 820 820 821 826 837 847 861 854 838 854 850 854 852 868 863 859 875 885 887 888 894 896 895 894 893
844 841 837 835 833 831 828 827 829 828 828 837 838 836 834 833 830 828 825 823 822 830 842 843 849 862 865 865 860 858 858 859 866 871 869 865 875 885 889 893 897 898 896 894 892
846 842 838 835 833 831 829 831 837 839 837 836 836 837 836 835 834 831 828 831 836 844 846 847 862 863 865 866 861 863 863 866 867 870 870 866 869 885 888 892 895 898 897 895 895
846 843 839 835 832 833 834 837 837 837 837 837 838 838 838 837 842 841 836 837 845 853 859 848 863 858 861 868 860 868 865 873 876 875 871 873 880 888 890 892 894 896 896 894 894
846 842 840 837 836 834 835 837 837 838 843 835 838 839 840 838 843 841 841 843 850 857 858 865 864 861 865 866 870 862 872 874 876 880 876 873 866 887 890 892 891 895 895 894 891
845 842 839 836 837 838 839 836 836 837 853 840 840 842 842 845 851 845 843 841 851 856 855 862 865 864 865 869 873 869 876 878 878 884 891 881 894 888 890 891 896 898 894 891 888
845 841 838 839 839 837 834 834 835 847 850 843 845 846 845 849 850 850 849 848 853 857 865 872 870 871 873 875 875 875 878 882 888 889 906 879 884 888 893 894 902 899 891 887 885
845 842 839 837 839 838 836 836 847 851 838 838 842 844 849 852 850 855 863 870 862 845 854 871 872 872 872 875 876 878 879 879 880 905 867 878 890 873 896 897 894 886 885 884 882
844 839 839 840 839 837 838 841 842 824 833 844 845 847 844 850 851 855 859 861 869 867 870 860 856 874 873 875 875 881 880 887 882 893 902 901 896 872 895 896 891 887 885 881 879
842 840 837 839 839 839 844 858 836 835 841 842 845 844 845 851 850 850 856 859 864 866 856 861 858 873 873 874 875 881 884 889 917 928 928 890 882 886 883 880 882 881 877 878 877
843 838 839 838 838 840 849 842 837 846 847 847 833 837 836 847 848 851 855 858 861 863 866 868 862 874 874 875 878 878 884 896 909 901 891 906 920 875 896 885 880 883 879 878 873
841 839 838 838 839 843 849 845 842 847 846 847 841 841 844 844 850 849 845 857 859 864 865 870 870 878 879 877 875 882 888 889 895 908 925 919 896 891 876 879 877 876 875 876 872
840 840 837 836 842 855 849 841 843 846 848 846 848 846 845 848 851 856 847 852 858 862 866 869 877 880 871 875 876 875 881 885 889 910 913 933 888 882 880 881 879 876 868 867 865
842 837 836 836 838 843 845 845 843 843 844 846 846 846 846 848 848 850 850 857 858 861 868 868 882 881 869 881 886 884 876 877 885 894 898 917 887 875 883 872 867 866 866 865 862
839 832 834 835 836 831 840 838 837 844 843 843 840 844 847 849 851 845 853 857 858 858 858 860 872 862 849 856 871 877 870 874 880 898 893 855 853 858 863 863 863 864 864 863 860
837 827 829 826 834 829 832 833 834 835 846 842 842 838 836 841 847 850 851 858 859 855 860 865 873 871 864 863 865 863 859 864 867 859 871 842 862 851 857 861 863 862 861 858 857
832 833 837 829 829 827 827 826 825 830 838 839 836 830 835 831 823 839 848 853 850 859 864 867 865 867 865 856 857 862 854 852 851 849 851 850 850 853 859 861 863 862 859 856 856
825 826 825 819 831 827 820 810 811 819 825 823 827 831 833 824 828 831 833 837 840 849 857 866 866 874 864 859 865 862 846 843 852 845 846 856 851 857 858 859 859 858 857 857 854